Weather History for KNBT - August, 2014

Change the Weather History Date:

Saturday, August 23, 2014

  Actual Average (KMRH) Record (KMRH)
Temperature  
Mean Temperature 80 °F -  
Max Temperature 84 °F 86 °F 94 °F (1968)
Min Temperature 75 °F 70 °F 56 °F (1969)
Cooling Degree Days 14    
Growing Degree Days 30 (Base 50)    
Moisture  
Dew Point 74 °F    
Average Humidity 80    
Maximum Humidity 93    
Minimum Humidity 69    
Precipitation  
Precipitation 0.00 in - - ()
Sea Level Pressure  
Sea Level Pressure 29.94 in    
Wind  
Wind Speed 7 mph (NE)    
Max Wind Speed 22 mph    
Max Gust Speed 31 mph    
Visibility 8 miles    
Events Rain    
Averages and records for this station are not official NWS values.
T = Trace of Precipitation, MM = Missing Value Source: NWS Daily Summary

Daily Weather History Graph

Daily Weather History Graph

Search for Another Location

Airport or City:

Trip Planner

Search our weather history database for the weather conditions in past years. The results will help you decide how hot, cold, wet, or windy it might be!

Date:

Astronomy

Aug. 23, 2014 Rise Set
Actual Time 6:31 AM EDT 7:44 PM EDT
Civil Twilight 6:05 AM EDT 8:10 PM EDT
Nautical Twilight 5:34 AM EDT 8:42 PM EDT
Astronomical Twilight 5:01 AM EDT 9:14 PM EDT
Moon 4:47 AM EDT (8/23) 6:27 PM EDT (8/23)
Length of Visible Light 14h 05m
Length of Day
13h 12m
Waning Crescent, 3% of the Moon is Illuminated
Aug 23
Waning Crescent
Aug 25
New
Sep 2
First Quarter
Sep 8
Full
Sep 15
Last Quarter

Hourly Weather History & Observations

Time (EDT) Temp. Heat Index Dew Point Humidity Pressure Visibility Wind Dir Wind Speed Gust Speed Precip Events Conditions
12:56 AM 82.0 °F 88.6 °F 75.0 °F 79% 29.95 in 10.0 mi NE 4.6 mph - N/A   Clear
1:56 AM 82.9 °F 90.8 °F 75.9 °F 79% 29.94 in 10.0 mi NE 4.6 mph - N/A   Partly Cloudy
2:56 AM 82.0 °F 89.4 °F 75.9 °F 82% 29.94 in 10.0 mi ENE 5.8 mph - N/A   Mostly Cloudy
4:56 AM 81.0 °F 86.7 °F 75.0 °F 82% 29.92 in 10.0 mi NE 6.9 mph - N/A   Partly Cloudy
5:56 AM 81.0 °F 86.2 °F 73.9 °F 79% 29.92 in 10.0 mi ENE 6.9 mph - N/A   Scattered Clouds
6:56 AM 81.0 °F 86.2 °F 73.9 °F 79% 29.94 in 9.0 mi ENE 5.8 mph - N/A   Mostly Cloudy
7:36 AM 80.1 °F 85.1 °F 75.0 °F 85% 29.95 in 1.8 mi West 4.6 mph - N/A Rain Rain
7:56 AM 78.1 °F - 75.9 °F 93% 29.95 in 3.0 mi Calm Calm - N/A Rain Light Rain
8:56 AM 80.1 °F 85.4 °F 75.9 °F 87% 29.96 in 6.0 mi Calm Calm - N/A   Overcast
9:56 AM 81.0 °F 87.9 °F 77.0 °F 88% 29.97 in 7.0 mi Calm Calm - N/A   Overcast
10:31 AM 82.0 °F 90.2 °F 77.0 °F 85% 29.96 in 8.0 mi ENE 3.5 mph - N/A   Mostly Cloudy
10:56 AM 82.9 °F 90.8 °F 75.9 °F 79% 29.98 in 9.0 mi NE 5.8 mph - N/A   Mostly Cloudy
11:17 AM 82.9 °F 90.8 °F 75.9 °F 79% 29.96 in 10.0 mi NE 6.9 mph - N/A   Mostly Cloudy
11:24 AM 82.9 °F 91.8 °F 77.0 °F 82% 29.96 in 10.0 mi ENE 8.1 mph - N/A   Mostly Cloudy
11:56 AM 82.9 °F 90.8 °F 75.9 °F 79% 29.97 in 10.0 mi ENE 10.4 mph - N/A Rain Light Rain
12:56 PM 82.9 °F 89.4 °F 73.9 °F 74% 29.96 in 10.0 mi ENE 10.4 mph - N/A Rain Light Rain
1:56 PM 82.9 °F 88.8 °F 73.0 °F 72% 29.95 in 10.0 mi ENE 8.1 mph - N/A   Overcast
2:56 PM 84.0 °F 91.2 °F 73.9 °F 72% 29.94 in 10.0 mi East 10.4 mph - N/A   Mostly Cloudy
3:56 PM 84.0 °F 91.2 °F 73.9 °F 72% 29.93 in 10.0 mi ENE 9.2 mph - N/A   Mostly Cloudy
4:56 PM 84.0 °F 90.2 °F 73.0 °F 69% 29.92 in 10.0 mi ENE 9.2 mph - N/A   Mostly Cloudy
5:56 PM 82.0 °F 87.4 °F 73.0 °F 74% 29.93 in 10.0 mi ENE 10.4 mph - N/A   Overcast
6:56 PM 78.1 °F - 73.0 °F 84% 29.92 in 9.0 mi NE 21.9 mph 31.1 mph N/A   Overcast
7:08 PM 75.9 °F - 72.0 °F 87% 29.92 in 1.8 mi NNE 16.1 mph 27.6 mph N/A Rain Heavy Rain
7:20 PM 75.9 °F - 72.0 °F 87% 29.92 in 2.0 mi NE 12.7 mph - N/A Rain Rain
7:56 PM 79.0 °F - 73.0 °F 82% 29.94 in 10.0 mi NE 9.2 mph - N/A Rain Light Rain
8:56 PM 80.1 °F 83.8 °F 72.0 °F 76% 29.94 in 10.0 mi NE 12.7 mph - N/A   Overcast
9:56 PM 80.1 °F 83.8 °F 72.0 °F 76% 29.94 in 10.0 mi NE 13.8 mph - N/A   Scattered Clouds
10:56 PM 81.0 °F 85.2 °F 72.0 °F 74% 29.94 in 10.0 mi ENE 15.0 mph - N/A   Clear
11:56 PM 80.1 °F 83.8 °F 72.0 °F 76% 29.94 in 10.0 mi ENE 15.0 mph 21.9 mph N/A   Scattered Clouds